Showing default

OBZOR-R 01, 67234

Orbit data source: Space-Track

OBZOR-R 01, 67234 is a payload satellite owned by Roskosmos (CIS) in SSO that was launched on Thu, 25 Dec 2025 UTC via a SOYUZ-2-1A launch vehicle from the Plesetsk Missile And Space Complex (PKMTR). Payload-class satellites include a variety of spacecraft equipped with specific instruments for various scientific and technological missions. These include communications satellites like Starlink; space stations such as the ISS; scientific satellites like the Hubble; Earth observation satellites from companies like Planet Labs, Umbra, and HawkEye 360; GPS; miniature CubeSats for education and research; and military/defense satellites.

Loading next visibility...
Identifier
67234, 2025-310A
Orbit
SSO
Country
Flag of CISCIS
Related business
Manufacturer
TsSKB-Progress
Mission
Operational Civil Radar Imaging
Bus & Motor
OBZOR, AOCS
Mass
4,000 kg wet, ~3,700 kg dry
Launch date (UTC)
2025-12-25 (6 months ago)
Launch vehicle
SOYUZ-2-1A
Launch site
Plesetsk Missile And Space Complex (PKMTR)
Object type
Payload
Rocket body
Debris
Shape & HBR
Cyl + 2 Pan, 1.1 m
Radar Cross Section
20.881 m², Large (>1 m²)

Expand to show TLE details & history
Last TLE update: 3 days ago

TLE from 3 days ago
0 OBZOR-R 01
1 67234U 25310A   26168.97357541  .00000089  00000-0  20306-4 0  9999
2 67234  97.9634 176.2488 0001159  89.1702 270.9640 14.75885910 25745
Epoch: 2026-06-17T23:21Z
TLE epoch observation values (Epoch: 2026-06-17T23:21:56.915Z)
Latitude
-0.00005°
Longitude
-80.46191°
Altitude
645.341 km
Speed
7.535 km/s
True Right ascension
11h 44m 59s
True Declination
0° 00' 00"
Sunlit
Object was in daylight at epoch
Visualization orbit readout
Latitude
Unknown
Longitude
Unknown
Altitude
Unknown
Speed
Unknown
Apparent Right ascension
Unknown
Apparent Declination
Unknown
Sunlit
N/A
Visualization observer readout
Local Sidereal Time
07:24:06
Azimuth
Unknown
Elevation
Unknown
Doppler factor
Unknown
Orbital elements
Apogee altitude
640.203 km
Perigee altitude
638.576 km
Semi-major axis
7,017.527 km
Eccentricity
0.00012
Inclination
97.9634°
RAAN
176.2488°
Arg. of periapsis
89.1702°
True anomaly
270.95072°
Mean anomaly
270.964°
Eccentric anomaly
270.95736°
Mean motion
3.69205 °/min
Orbital period
97.51 mins
BSTAR
0.000020306
Loading maneuver chart data...
Computing Atmospheric mass density...
Loading historical data...
Loading historical data...
Loading historical data...
Loading historical data...
Loading historical data...
Loading historical data...
Loading historical data...
Other satellites on launch #310 in the year 2025 (2025-12-25 UTC)

Documentation

Showing up to 5 results
|